Time,TemperatureF,DewpointF,PressureIn,WindDirection,WindDirectionDegrees,WindSpeedMPH,WindSpeedGustMPH,Humidity,HourlyPrecipIn,Conditions,Clouds,dailyrainin,SoftwareType,DateUTC
2013-07-27 00:01:00,65.7,63.0,29.88,SSW,213,6.0,6.0,91,0.02,,OVC044,0.00,VWS V13.01,2013-07-27 04:01:00,
2013-07-27 00:02:00,65.8,63.1,29.88,SW,216,3.0,7.0,91,0.02,,OVC044,0.00,VWS V13.01,2013-07-27 04:02:00,
2013-07-27 00:07:00,65.8,63.1,29.87,SSW,196,2.0,5.0,91,0.02,,OVC044,0.00,VWS V13.01,2013-07-27 04:07:00,
2013-07-27 00:12:00,65.9,63.2,29.88,WSW,239,5.0,6.0,91,0.02,,OVC044,0.00,VWS V13.01,2013-07-27 04:12:00,
2013-07-27 00:17:00,66.1,63.1,29.87,SW,231,3.0,6.0,90,0.02,,OVC044,0.00,VWS V13.01,2013-07-27 04:17:00,
2013-07-27 00:22:00,66.1,63.1,29.87,SW,219,5.0,5.0,90,0.02,,OVC044,0.00,VWS V13.01,2013-07-27 04:22:00,
2013-07-27 00:27:00,66.1,62.8,29.87,SSW,201,3.0,6.0,89,0.04,,OVC044,0.02,VWS V13.01,2013-07-27 04:27:00,
2013-07-27 00:32:00,65.7,62.0,29.87,SW,218,5.0,8.0,88,0.04,,OVC044,0.03,VWS V13.01,2013-07-27 04:32:00,
2013-07-27 00:37:00,65.7,62.4,29.86,SW,218,7.0,7.0,89,0.04,,OVC044,0.03,VWS V13.01,2013-07-27 04:37:00,
2013-07-27 00:42:00,65.8,62.8,29.86,SSW,213,7.0,8.0,90,0.05,,OVC044,0.04,VWS V13.01,2013-07-27 04:42:00,
2013-07-27 00:47:00,65.9,62.6,29.86,SW,214,5.0,7.0,89,0.05,,OVC044,0.04,VWS V13.01,2013-07-27 04:47:00,
2013-07-27 00:52:00,65.9,62.6,29.86,SSW,193,7.0,7.0,89,0.05,,OVC044,0.04,VWS V13.01,2013-07-27 04:52:00,
2013-07-27 00:57:00,65.9,62.9,29.86,South,178,3.0,6.0,90,0.05,,OVC044,0.04,VWS V13.01,2013-07-27 04:57:00,
2013-07-27 01:02:00,65.9,63.2,29.85,SSE,163,5.0,6.0,91,0.04,,SCT110,0.04,VWS V13.01,2013-07-27 05:02:00,
2013-07-27 01:07:00,65.8,62.8,29.85,South,183,4.0,6.0,90,0.04,,SCT110,0.04,VWS V13.01,2013-07-27 05:07:00,
2013-07-27 01:12:00,65.8,62.8,29.85,South,183,4.0,5.0,90,0.04,,SCT110,0.04,VWS V13.01,2013-07-27 05:12:00,
2013-07-27 01:17:00,65.9,62.6,29.85,SSW,207,5.0,6.0,89,0.04,,SCT110,0.04,VWS V13.01,2013-07-27 05:17:00,
2013-07-27 01:22:00,66.0,63.0,29.84,SSW,206,2.0,5.0,90,0.04,,SCT110,0.04,VWS V13.01,2013-07-27 05:22:00,
2013-07-27 01:27:00,65.9,62.9,29.84,SSW,199,3.0,5.0,90,0.04,,SCT110,0.04,VWS V13.01,2013-07-27 05:27:00,
2013-07-27 01:32:00,65.9,62.9,29.85,SSW,202,3.0,5.0,90,0.01,,SCT110,0.04,VWS V13.01,2013-07-27 05:32:00,
2013-07-27 01:37:00,66.0,63.3,29.85,SW,217,4.0,5.0,91,0.01,,SCT110,0.04,VWS V13.01,2013-07-27 05:37:00,
2013-07-27 01:42:00,65.9,62.9,29.85,SW,221,5.0,6.0,90,0.01,,SCT110,0.04,VWS V13.01,2013-07-27 05:42:00,
2013-07-27 01:47:00,65.9,63.2,29.85,WSW,254,2.0,6.0,91,0.01,,SCT110,0.04,VWS V13.01,2013-07-27 05:47:00,
2013-07-27 01:52:00,65.6,62.9,29.85,WNW,289,2.0,4.0,91,0.01,,SCT110,0.04,VWS V13.01,2013-07-27 05:52:00,
2013-07-27 01:57:00,65.3,62.9,29.84,WNW,289,0.0,3.0,92,0.01,,SCT110,0.04,VWS V13.01,2013-07-27 05:57:00,
2013-07-27 02:02:00,65.1,62.7,29.84,WNW,289,0.0,2.0,92,0.00,,,0.04,VWS V13.01,2013-07-27 06:02:00,
2013-07-27 02:07:00,65.0,62.9,29.84,West,279,3.0,3.0,93,0.00,,,0.04,VWS V13.01,2013-07-27 06:07:00,
2013-07-27 02:13:00,65.3,62.9,29.84,SW,224,4.0,4.0,92,0.00,,,0.04,VWS V13.01,2013-07-27 06:13:00,
2013-07-27 02:18:00,65.5,63.1,29.84,SW,225,2.0,5.0,92,0.00,,,0.04,VWS V13.01,2013-07-27 06:18:00,
2013-07-27 02:23:00,65.6,63.2,29.84,SW,225,3.0,4.0,92,0.00,,,0.04,VWS V13.01,2013-07-27 06:23:00,
2013-07-27 02:28:00,65.7,63.3,29.84,SW,221,4.0,5.0,92,0.00,,,0.04,VWS V13.01,2013-07-27 06:28:00,
2013-07-27 02:33:00,65.8,63.4,29.84,SSW,209,2.0,4.0,92,0.00,,,0.04,VWS V13.01,2013-07-27 06:33:00,
2013-07-27 02:38:00,65.8,63.4,29.84,South,169,3.0,4.0,92,0.00,,,0.04,VWS V13.01,2013-07-27 06:38:00,
2013-07-27 02:43:00,65.8,63.7,29.84,SSE,162,4.0,4.0,93,0.00,,,0.04,VWS V13.01,2013-07-27 06:43:00,
2013-07-27 02:48:00,65.8,63.7,29.83,SSE,153,3.0,4.0,93,0.00,,,0.04,VWS V13.01,2013-07-27 06:48:00,
2013-07-27 02:53:00,65.9,63.8,29.83,SE,146,4.0,5.0,93,0.00,,,0.04,VWS V13.01,2013-07-27 06:53:00,
2013-07-27 02:58:00,65.9,63.8,29.83,South,181,3.0,6.0,93,0.00,,,0.04,VWS V13.01,2013-07-27 06:58:00,
2013-07-27 03:03:00,65.9,63.8,29.83,SE,144,3.0,5.0,93,0.00,,OVC044,0.04,VWS V13.01,2013-07-27 07:03:00,
2013-07-27 03:08:00,66.2,64.4,29.83,SSE,157,3.0,4.0,94,0.00,,OVC044,0.04,VWS V13.01,2013-07-27 07:08:00,
2013-07-27 03:13:00,66.3,64.2,29.83,SSE,164,3.0,5.0,93,0.00,,OVC044,0.04,VWS V13.01,2013-07-27 07:13:00,
2013-07-27 03:18:00,66.5,64.4,29.83,South,189,4.0,6.0,93,0.00,,OVC044,0.04,VWS V13.01,2013-07-27 07:18:00,
2013-07-27 03:23:00,66.8,64.4,29.82,SSW,196,4.0,6.0,92,0.00,,OVC044,0.04,VWS V13.01,2013-07-27 07:23:00,
2013-07-27 03:28:00,67.2,64.5,29.82,SSW,198,6.0,7.0,91,0.00,,OVC044,0.04,VWS V13.01,2013-07-27 07:28:00,
2013-07-27 03:33:00,67.6,64.9,29.83,South,184,8.0,9.0,91,0.00,,OVC044,0.04,VWS V13.01,2013-07-27 07:33:00,
2013-07-27 03:38:00,67.9,65.2,29.82,SW,219,6.0,10.0,91,0.00,,OVC044,0.04,VWS V13.01,2013-07-27 07:38:00,
2013-07-27 03:43:00,67.9,64.9,29.82,SW,215,8.0,9.0,90,0.00,,OVC044,0.04,VWS V13.01,2013-07-27 07:43:00,
2013-07-27 03:48:00,68.0,65.0,29.82,SSW,198,6.0,9.0,90,0.00,,OVC044,0.04,VWS V13.01,2013-07-27 07:48:00,
2013-07-27 03:53:00,67.6,64.6,29.82,NW,308,2.0,7.0,90,0.00,,OVC044,0.04,VWS V13.01,2013-07-27 07:53:00,
2013-07-27 03:58:00,67.2,64.5,29.82,SSW,205,6.0,8.0,91,0.00,,OVC044,0.04,VWS V13.01,2013-07-27 07:58:00,
2013-07-27 04:03:00,67.3,64.6,29.82,SW,215,7.0,8.0,91,0.00,,OVC020,0.04,VWS V13.01,2013-07-27 08:03:00,
2013-07-27 04:08:00,67.2,64.5,29.82,SW,229,5.0,7.0,91,0.00,,OVC020,0.04,VWS V13.01,2013-07-27 08:08:00,
2013-07-27 04:13:00,67.1,64.4,29.82,SW,223,6.0,7.0,91,0.00,,OVC020,0.04,VWS V13.01,2013-07-27 08:13:00,
2013-07-27 04:18:00,67.0,64.3,29.82,SW,224,9.0,9.0,91,0.00,,OVC020,0.04,VWS V13.01,2013-07-27 08:18:00,
2013-07-27 04:23:00,67.1,64.7,29.82,SW,220,7.0,10.0,92,0.00,,OVC020,0.04,VWS V13.01,2013-07-27 08:23:00,
2013-07-27 04:28:00,66.8,64.1,29.82,SW,221,7.0,10.0,91,0.00,,OVC020,0.04,VWS V13.01,2013-07-27 08:28:00,
2013-07-27 04:33:00,66.7,64.3,29.82,SW,231,6.0,9.0,92,0.00,,OVC020,0.04,VWS V13.01,2013-07-27 08:33:00,
2013-07-27 04:38:00,66.5,64.1,29.82,SW,236,5.0,9.0,92,0.00,,OVC020,0.04,VWS V13.01,2013-07-27 08:38:00,
2013-07-27 04:43:00,66.4,64.0,29.82,SW,230,5.0,8.0,92,0.00,,OVC020,0.04,VWS V13.01,2013-07-27 08:43:00,
2013-07-27 04:48:00,66.3,63.9,29.82,SW,223,7.0,9.0,92,0.00,,OVC020,0.04,VWS V13.01,2013-07-27 08:48:00,
2013-07-27 04:53:00,66.2,63.8,29.82,SSW,211,6.0,8.0,92,0.00,,OVC020,0.04,VWS V13.01,2013-07-27 08:53:00,
2013-07-27 04:58:00,66.1,63.7,29.82,SW,219,6.0,9.0,92,0.00,,OVC020,0.04,VWS V13.01,2013-07-27 08:58:00,
2013-07-27 05:03:00,66.1,64.0,29.82,SW,217,6.0,8.0,93,0.00,,OVC033,0.04,VWS V13.01,2013-07-27 09:03:00,
2013-07-27 05:08:00,66.1,64.0,29.82,SW,215,10.0,11.0,93,0.00,,OVC033,0.04,VWS V13.01,2013-07-27 09:08:00,
2013-07-27 05:13:00,66.0,63.6,29.82,SSW,207,11.0,12.0,92,0.00,,OVC033,0.04,VWS V13.01,2013-07-27 09:13:00,
2013-07-27 05:18:00,65.9,63.5,29.82,SW,224,11.0,12.0,92,0.00,,OVC033,0.04,VWS V13.01,2013-07-27 09:18:00,
2013-07-27 05:23:00,65.9,63.5,29.82,SW,234,11.0,11.0,92,0.00,,OVC033,0.04,VWS V13.01,2013-07-27 09:23:00,
2013-07-27 05:28:00,65.7,63.3,29.82,SW,232,9.0,12.0,92,0.00,,OVC033,0.04,VWS V13.01,2013-07-27 09:28:00,
2013-07-27 05:33:00,65.6,63.5,29.82,WSW,240,8.0,12.0,93,0.00,,OVC033,0.04,VWS V13.01,2013-07-27 09:33:00,
2013-07-27 05:38:00,65.3,62.9,29.82,WSW,248,7.0,11.0,92,0.00,,OVC033,0.04,VWS V13.01,2013-07-27 09:38:00,
2013-07-27 05:43:00,65.2,63.1,29.82,WSW,252,8.0,12.0,93,0.00,,OVC033,0.04,VWS V13.01,2013-07-27 09:43:00,
2013-07-27 05:48:00,65.0,62.9,29.82,WSW,237,9.0,9.0,93,0.00,,OVC033,0.04,VWS V13.01,2013-07-27 09:48:00,
2013-07-27 05:53:00,64.7,62.6,29.82,West,279,5.0,9.0,93,0.00,,OVC033,0.04,VWS V13.01,2013-07-27 09:53:00,
2013-07-27 05:58:00,64.5,62.4,29.82,WSW,254,6.0,6.0,93,0.00,,OVC033,0.04,VWS V13.01,2013-07-27 09:58:00,
2013-07-27 06:03:00,64.3,62.2,29.82,WSW,251,3.0,6.0,93,0.00,,,0.04,VWS V13.01,2013-07-27 10:03:00,
2013-07-27 06:08:00,64.4,62.6,29.82,WSW,238,4.0,9.0,94,0.00,,,0.04,VWS V13.01,2013-07-27 10:08:00,
2013-07-27 06:13:00,64.3,62.5,29.82,WSW,237,5.0,7.0,94,0.00,,,0.04,VWS V13.01,2013-07-27 10:13:00,
2013-07-27 06:18:00,64.2,62.4,29.82,WSW,254,6.0,7.0,94,0.00,,,0.04,VWS V13.01,2013-07-27 10:18:00,
2013-07-27 06:23:00,64.2,62.4,29.82,WSW,250,6.0,8.0,94,0.00,,,0.04,VWS V13.01,2013-07-27 10:23:00,
2013-07-27 06:28:00,64.1,62.3,29.82,WSW,250,5.0,8.0,94,0.00,,,0.04,VWS V13.01,2013-07-27 10:28:00,
2013-07-27 06:33:00,64.2,62.4,29.82,WSW,249,5.0,8.0,94,0.00,,,0.04,VWS V13.01,2013-07-27 10:33:00,
2013-07-27 06:39:00,64.2,62.4,29.82,WSW,248,5.0,8.0,94,0.00,,,0.04,VWS V13.01,2013-07-27 10:39:00,
2013-07-27 06:44:00,64.3,62.5,29.82,WSW,257,3.0,7.0,94,0.00,,,0.04,VWS V13.01,2013-07-27 10:44:00,
2013-07-27 06:49:00,64.2,62.4,29.82,WSW,250,2.0,6.0,94,0.00,,,0.04,VWS V13.01,2013-07-27 10:49:00,
2013-07-27 06:54:00,64.3,62.5,29.83,WSW,257,4.0,7.0,94,0.00,,,0.04,VWS V13.01,2013-07-27 10:54:00,
2013-07-27 06:59:00,64.5,63.0,29.83,WSW,244,6.0,7.0,95,0.00,,,0.04,VWS V13.01,2013-07-27 10:59:00,
2013-07-27 07:04:00,64.5,62.7,29.83,WSW,257,4.0,7.0,94,0.00,,,0.04,VWS V13.01,2013-07-27 11:04:00,
2013-07-27 07:09:00,64.3,62.5,29.83,WSW,250,5.0,6.0,94,0.00,,,0.04,VWS V13.01,2013-07-27 11:09:00,
2013-07-27 07:14:00,64.3,62.5,29.83,West,281,1.0,6.0,94,0.00,,,0.04,VWS V13.01,2013-07-27 11:14:00,
2013-07-27 07:19:00,64.1,62.3,29.83,WSW,244,2.0,6.0,94,0.00,,,0.04,VWS V13.01,2013-07-27 11:19:00,
2013-07-27 07:24:00,64.0,62.2,29.82,WNW,292,1.0,5.0,94,0.00,,,0.04,VWS V13.01,2013-07-27 11:24:00,
2013-07-27 07:29:00,63.9,62.1,29.82,WNW,292,4.0,4.0,94,0.00,,,0.04,VWS V13.01,2013-07-27 11:29:00,
2013-07-27 07:34:00,63.8,62.3,29.82,WNW,292,1.0,4.0,95,0.00,,,0.04,VWS V13.01,2013-07-27 11:34:00,
2013-07-27 07:39:00,64.0,62.5,29.82,WNW,287,1.0,4.0,95,0.00,,,0.04,VWS V13.01,2013-07-27 11:39:00,
2013-07-27 07:44:00,63.9,62.4,29.82,WNW,287,0.0,3.0,95,0.00,,,0.04,VWS V13.01,2013-07-27 11:44:00,
2013-07-27 07:49:00,64.0,62.5,29.82,WNW,286,1.0,3.0,95,0.00,,,0.04,VWS V13.01,2013-07-27 11:49:00,
2013-07-27 07:54:00,64.0,62.2,29.82,WNW,285,1.0,3.0,94,0.00,,,0.04,VWS V13.01,2013-07-27 11:54:00,
2013-07-27 07:59:00,64.3,62.5,29.82,West,263,2.0,5.0,94,0.00,,,0.04,VWS V13.01,2013-07-27 11:59:00,
2013-07-27 08:04:00,64.3,62.5,29.83,West,263,1.0,4.0,94,0.01,,,0.05,VWS V13.01,2013-07-27 12:04:00,
2013-07-27 08:09:00,64.4,62.6,29.82,WSW,246,2.0,5.0,94,0.01,,,0.05,VWS V13.01,2013-07-27 12:09:00,
2013-07-27 08:14:00,64.6,62.8,29.82,WSW,238,4.0,5.0,94,0.01,,,0.05,VWS V13.01,2013-07-27 12:14:00,
2013-07-27 08:19:00,64.7,62.9,29.82,West,281,2.0,7.0,94,0.01,,,0.05,VWS V13.01,2013-07-27 12:19:00,
2013-07-27 08:24:00,64.5,62.7,29.82,WSW,256,3.0,6.0,94,0.01,,,0.05,VWS V13.01,2013-07-27 12:24:00,
2013-07-27 08:29:00,64.5,62.7,29.82,WNW,284,1.0,4.0,94,0.01,,,0.05,VWS V13.01,2013-07-27 12:29:00,
2013-07-27 08:34:00,64.6,62.8,29.81,WNW,284,0.0,3.0,94,0.01,,,0.05,VWS V13.01,2013-07-27 12:34:00,
2013-07-27 08:39:00,64.7,62.9,29.81,WNW,284,0.0,1.0,94,0.01,,,0.05,VWS V13.01,2013-07-27 12:39:00,
2013-07-27 08:44:00,64.7,62.9,29.81,WNW,284,0.0,1.0,94,0.01,,,0.05,VWS V13.01,2013-07-27 12:44:00,
2013-07-27 08:49:00,64.8,63.0,29.82,WSW,248,4.0,4.0,94,0.01,,,0.05,VWS V13.01,2013-07-27 12:49:00,
2013-07-27 08:54:00,65.1,63.3,29.81,SW,225,4.0,6.0,94,0.01,,,0.05,VWS V13.01,2013-07-27 12:54:00,
2013-07-27 08:59:00,65.0,63.2,29.81,SW,227,4.0,4.0,94,0.01,,,0.05,VWS V13.01,2013-07-27 12:59:00,
2013-07-27 09:04:00,65.0,63.2,29.82,SW,227,3.0,5.0,94,0.01,,BKN075,0.05,VWS V13.01,2013-07-27 13:04:00,
2013-07-27 09:09:00,64.9,63.1,29.82,WSW,238,5.0,6.0,94,0.01,,BKN075,0.05,VWS V13.01,2013-07-27 13:09:00,
2013-07-27 09:14:00,65.0,63.2,29.81,SW,231,3.0,5.0,94,0.01,,BKN075,0.05,VWS V13.01,2013-07-27 13:14:00,
2013-07-27 09:19:00,64.9,63.1,29.82,SW,231,5.0,6.0,94,0.01,,BKN075,0.05,VWS V13.01,2013-07-27 13:19:00,
2013-07-27 09:24:00,64.9,63.4,29.81,SW,234,4.0,6.0,95,0.01,,BKN075,0.05,VWS V13.01,2013-07-27 13:24:00,
2013-07-27 09:29:00,64.9,63.1,29.81,WSW,252,4.0,5.0,94,0.01,,BKN075,0.05,VWS V13.01,2013-07-27 13:29:00,
2013-07-27 09:34:00,64.9,63.1,29.81,WSW,253,3.0,5.0,94,0.00,,BKN075,0.05,VWS V13.01,2013-07-27 13:34:00,
2013-07-27 09:39:00,65.1,63.3,29.81,SW,234,2.0,5.0,94,0.00,,BKN075,0.05,VWS V13.01,2013-07-27 13:39:00,
2013-07-27 09:44:00,65.1,63.0,29.81,SW,234,0.0,2.0,93,0.00,,BKN075,0.05,VWS V13.01,2013-07-27 13:44:00,
2013-07-27 09:49:00,65.2,63.1,29.81,SW,234,3.0,3.0,93,0.00,,BKN075,0.05,VWS V13.01,2013-07-27 13:49:00,
2013-07-27 09:54:00,65.2,63.1,29.81,SW,234,4.0,4.0,93,0.00,,BKN075,0.05,VWS V13.01,2013-07-27 13:54:00,
2013-07-27 09:59:00,65.2,63.1,29.81,WSW,239,4.0,5.0,93,0.00,,BKN075,0.05,VWS V13.01,2013-07-27 13:59:00,
2013-07-27 10:04:00,65.2,63.1,29.81,WSW,243,5.0,5.0,93,0.00,,OVC018,0.05,VWS V13.01,2013-07-27 14:04:00,
2013-07-27 10:09:00,65.4,63.3,29.81,WSW,240,3.0,5.0,93,0.00,,OVC018,0.05,VWS V13.01,2013-07-27 14:09:00,
2013-07-27 10:14:00,65.4,63.3,29.81,WSW,238,4.0,5.0,93,0.00,,OVC018,0.05,VWS V13.01,2013-07-27 14:14:00,
2013-07-27 10:19:00,65.6,63.2,29.81,WSW,240,5.0,5.0,92,0.00,,OVC018,0.05,VWS V13.01,2013-07-27 14:19:00,
2013-07-27 10:24:00,65.6,63.2,29.81,WSW,240,4.0,5.0,92,0.00,,OVC018,0.05,VWS V13.01,2013-07-27 14:24:00,
2013-07-27 10:29:00,65.6,63.2,29.81,SW,225,1.0,5.0,92,0.00,,OVC018,0.05,VWS V13.01,2013-07-27 14:29:00,
2013-07-27 10:34:00,65.6,63.2,29.81,SW,222,4.0,4.0,92,0.00,,OVC018,0.05,VWS V13.01,2013-07-27 14:34:00,
2013-07-27 10:40:00,65.6,63.5,29.81,SW,223,3.0,5.0,93,0.00,,OVC018,0.05,VWS V13.01,2013-07-27 14:40:00,
2013-07-27 10:45:00,65.5,63.1,29.81,SSW,207,4.0,5.0,92,0.00,,OVC018,0.05,VWS V13.01,2013-07-27 14:45:00,
2013-07-27 10:50:00,65.6,63.2,29.81,SSW,207,2.0,3.0,92,0.00,,OVC018,0.05,VWS V13.01,2013-07-27 14:50:00,
2013-07-27 10:55:00,65.7,63.3,29.80,SSW,207,1.0,3.0,92,0.00,,OVC018,0.05,VWS V13.01,2013-07-27 14:55:00,
2013-07-27 11:00:00,65.8,63.1,29.80,SSW,207,1.0,2.0,91,0.00,,OVC018,0.05,VWS V13.01,2013-07-27 15:00:00,
2013-07-27 11:05:00,66.0,63.3,29.80,SSW,207,2.0,3.0,91,0.00,,OVC044,0.05,VWS V13.01,2013-07-27 15:05:00,
2013-07-27 11:10:00,66.1,63.1,29.80,SSW,208,2.0,3.0,90,0.00,,OVC044,0.05,VWS V13.01,2013-07-27 15:10:00,
2013-07-27 11:15:00,66.2,63.2,29.79,SSW,208,2.0,2.0,90,0.00,,OVC044,0.05,VWS V13.01,2013-07-27 15:15:00,
2013-07-27 11:20:00,66.4,63.7,29.79,SSW,208,2.0,3.0,91,0.00,,OVC044,0.05,VWS V13.01,2013-07-27 15:20:00,
2013-07-27 11:25:00,66.5,63.5,29.79,SSW,208,1.0,4.0,90,0.00,,OVC044,0.05,VWS V13.01,2013-07-27 15:25:00,
2013-07-27 11:30:00,66.7,63.7,29.79,SSW,208,2.0,4.0,90,0.00,,OVC044,0.05,VWS V13.01,2013-07-27 15:30:00,
2013-07-27 11:35:00,66.8,63.8,29.79,SSW,207,1.0,3.0,90,0.00,,OVC044,0.05,VWS V13.01,2013-07-27 15:35:00,
2013-07-27 11:40:00,67.1,64.7,29.79,SSE,167,2.0,3.0,92,0.00,,OVC044,0.05,VWS V13.01,2013-07-27 15:40:00,
2013-07-27 11:45:00,67.5,64.5,29.79,SSE,167,3.0,3.0,90,0.00,,OVC044,0.05,VWS V13.01,2013-07-27 15:45:00,
2013-07-27 11:50:00,67.8,64.8,29.79,SE,130,4.0,4.0,90,0.00,,OVC044,0.05,VWS V13.01,2013-07-27 15:50:00,
2013-07-27 11:55:00,68.0,64.6,29.79,SE,130,3.0,4.0,89,0.00,,OVC044,0.05,VWS V13.01,2013-07-27 15:55:00,
2013-07-27 12:00:00,68.2,64.8,29.79,SE,126,3.0,4.0,89,0.00,,OVC044,0.05,VWS V13.01,2013-07-27 16:00:00,
2013-07-27 12:05:00,68.3,64.9,29.79,ESE,109,3.0,4.0,89,0.00,,SCT033,0.05,VWS V13.01,2013-07-27 16:05:00,
2013-07-27 12:10:00,68.6,65.2,29.78,ESE,111,3.0,5.0,89,0.00,,SCT033,0.05,VWS V13.01,2013-07-27 16:10:00,
2013-07-27 12:15:00,68.9,65.2,29.78,ESE,111,2.0,4.0,88,0.00,,SCT033,0.05,VWS V13.01,2013-07-27 16:15:00,
2013-07-27 12:20:00,69.3,64.9,29.78,ESE,111,2.0,3.0,86,0.00,,SCT033,0.05,VWS V13.01,2013-07-27 16:20:00,
2013-07-27 12:25:00,69.5,65.1,29.77,ESE,111,2.0,3.0,86,0.00,,SCT033,0.05,VWS V13.01,2013-07-27 16:25:00,
2013-07-27 12:30:00,69.7,65.3,29.77,ESE,111,3.0,3.0,86,0.00,,SCT033,0.05,VWS V13.01,2013-07-27 16:30:00,
2013-07-27 12:35:00,69.6,64.9,29.78,ESE,111,4.0,4.0,85,0.00,,SCT033,0.05,VWS V13.01,2013-07-27 16:35:00,
2013-07-27 12:40:00,69.3,64.6,29.77,SE,124,5.0,5.0,85,0.00,,SCT033,0.05,VWS V13.01,2013-07-27 16:40:00,
2013-07-27 12:45:00,68.9,64.2,29.77,SE,136,4.0,6.0,85,0.00,,SCT033,0.05,VWS V13.01,2013-07-27 16:45:00,
2013-07-27 12:50:00,68.8,64.8,29.77,SSE,147,6.0,8.0,87,0.00,,SCT033,0.05,VWS V13.01,2013-07-27 16:50:00,
2013-07-27 12:55:00,68.9,65.2,29.77,ESE,121,5.0,8.0,88,0.00,,SCT033,0.05,VWS V13.01,2013-07-27 16:55:00,
2013-07-27 13:00:00,69.2,65.2,29.77,SE,133,4.0,7.0,87,0.00,,SCT033,0.05,VWS V13.01,2013-07-27 17:00:00,
2013-07-27 13:05:00,69.2,65.2,29.77,SE,135,7.0,7.0,87,0.00,,BKN034,0.05,VWS V13.01,2013-07-27 17:05:00,
2013-07-27 13:10:00,69.1,65.1,29.77,SE,138,5.0,8.0,87,0.00,,BKN034,0.05,VWS V13.01,2013-07-27 17:10:00,
2013-07-27 13:15:00,69.0,64.6,29.76,SE,133,6.0,8.0,86,0.00,,BKN034,0.05,VWS V13.01,2013-07-27 17:15:00,
2013-07-27 13:20:00,68.9,64.9,29.76,SE,140,6.0,8.0,87,0.00,,BKN034,0.05,VWS V13.01,2013-07-27 17:20:00,
2013-07-27 13:25:00,68.9,65.2,29.76,SE,140,4.0,7.0,88,0.00,,BKN034,0.05,VWS V13.01,2013-07-27 17:25:00,
2013-07-27 13:30:00,69.2,65.2,29.76,SE,140,6.0,7.0,87,0.00,,BKN034,0.05,VWS V13.01,2013-07-27 17:30:00,
2013-07-27 13:35:00,69.2,65.2,29.76,SE,145,4.0,7.0,87,0.00,,BKN034,0.05,VWS V13.01,2013-07-27 17:35:00,
2013-07-27 13:40:00,69.3,65.3,29.76,SE,142,6.0,7.0,87,0.00,,BKN034,0.05,VWS V13.01,2013-07-27 17:40:00,
2013-07-27 13:45:00,69.3,65.3,29.76,SE,137,6.0,8.0,87,0.00,,BKN034,0.05,VWS V13.01,2013-07-27 17:45:00,
2013-07-27 13:50:00,69.2,64.8,29.76,SE,138,5.0,7.0,86,0.00,,BKN034,0.05,VWS V13.01,2013-07-27 17:50:00,
2013-07-27 13:55:00,69.2,64.5,29.75,SE,140,6.0,7.0,85,0.00,,BKN034,0.05,VWS V13.01,2013-07-27 17:55:00,
2013-07-27 14:00:00,69.2,64.8,29.75,SE,140,4.0,6.0,86,0.00,,OVC025,0.05,VWS V13.01,2013-07-27 18:00:00,
2013-07-27 14:05:00,69.6,65.2,29.75,SE,140,6.0,7.0,86,0.00,,OVC025,0.05,VWS V13.01,2013-07-27 18:05:00,
2013-07-27 14:10:00,69.6,65.2,29.74,SE,140,5.0,6.0,86,0.00,,OVC025,0.05,VWS V13.01,2013-07-27 18:10:00,
2013-07-27 14:15:00,69.8,65.4,29.74,SE,140,4.0,6.0,86,0.00,,OVC025,0.05,VWS V13.01,2013-07-27 18:15:00,
2013-07-27 14:20:00,69.9,65.2,29.74,SE,140,4.0,5.0,85,0.00,,OVC025,0.05,VWS V13.01,2013-07-27 18:20:00,
2013-07-27 14:26:00,69.9,65.2,29.74,SE,135,4.0,7.0,85,0.00,,OVC025,0.05,VWS V13.01,2013-07-27 18:26:00,
2013-07-27 14:31:00,70.3,66.2,29.74,ESE,123,8.0,8.0,87,0.00,,OVC025,0.05,VWS V13.01,2013-07-27 18:31:00,
2013-07-27 14:36:00,70.7,66.3,29.73,ESE,117,9.0,10.0,86,0.00,,OVC025,0.05,VWS V13.01,2013-07-27 18:36:00,
2013-07-27 14:41:00,70.7,65.6,29.73,ESE,116,7.0,10.0,84,0.00,,OVC025,0.05,VWS V13.01,2013-07-27 18:41:00,
2013-07-27 14:46:00,70.7,66.0,29.73,ESE,113,7.0,10.0,85,0.00,,OVC025,0.05,VWS V13.01,2013-07-27 18:46:00,
2013-07-27 14:51:00,70.7,65.6,29.73,ESE,112,8.0,9.0,84,0.00,,OVC025,0.05,VWS V13.01,2013-07-27 18:51:00,
2013-07-27 14:56:00,70.9,66.2,29.73,ESE,114,8.0,10.0,85,0.00,,OVC025,0.05,VWS V13.01,2013-07-27 18:56:00,
2013-07-27 15:01:00,70.8,66.1,29.73,ESE,115,8.0,11.0,85,0.00,,OVC037,0.05,VWS V13.01,2013-07-27 19:01:00,
2013-07-27 15:06:00,70.6,65.9,29.73,ESE,112,7.0,10.0,85,0.00,,OVC037,0.05,VWS V13.01,2013-07-27 19:06:00,
2013-07-27 15:11:00,70.9,66.2,29.73,ESE,105,9.0,10.0,85,0.00,,OVC037,0.05,VWS V13.01,2013-07-27 19:11:00,
2013-07-27 15:16:00,70.9,65.8,29.73,ESE,110,9.0,11.0,84,0.00,,OVC037,0.05,VWS V13.01,2013-07-27 19:16:00,
2013-07-27 15:21:00,70.9,66.2,29.73,ESE,108,9.0,11.0,85,0.00,,OVC037,0.05,VWS V13.01,2013-07-27 19:21:00,
2013-07-27 15:26:00,70.7,66.3,29.73,ESE,121,10.0,11.0,86,0.00,,OVC037,0.05,VWS V13.01,2013-07-27 19:26:00,
2013-07-27 15:31:00,70.8,66.1,29.72,ESE,108,10.0,12.0,85,0.00,,OVC037,0.05,VWS V13.01,2013-07-27 19:31:00,
2013-07-27 15:36:00,70.6,66.6,29.73,East,100,11.0,14.0,87,0.00,,OVC037,0.05,VWS V13.01,2013-07-27 19:36:00,
2013-07-27 15:41:00,70.1,66.1,29.72,ESE,109,11.0,13.0,87,0.00,,OVC037,0.05,VWS V13.01,2013-07-27 19:41:00,
2013-07-27 15:46:00,69.7,66.0,29.72,ESE,112,11.0,13.0,88,0.00,,OVC037,0.05,VWS V13.01,2013-07-27 19:46:00,
2013-07-27 15:51:00,69.6,65.6,29.72,East,101,8.0,13.0,87,0.00,,OVC037,0.05,VWS V13.01,2013-07-27 19:51:00,
2013-07-27 15:56:00,69.6,65.9,29.72,East,94,6.0,10.0,88,0.00,,OVC037,0.05,VWS V13.01,2013-07-27 19:56:00,
2013-07-27 16:01:00,69.7,65.7,29.72,East,101,7.0,9.0,87,0.00,,,0.05,VWS V13.01,2013-07-27 20:01:00,
2013-07-27 16:06:00,69.8,65.8,29.72,ESE,102,9.0,10.0,87,0.00,,,0.05,VWS V13.01,2013-07-27 20:06:00,
2013-07-27 16:11:00,69.7,66.3,29.72,East,96,9.0,11.0,89,0.00,,,0.05,VWS V13.01,2013-07-27 20:11:00,
2013-07-27 16:16:00,69.4,65.0,29.72,East,98,8.0,10.0,86,0.00,,,0.05,VWS V13.01,2013-07-27 20:16:00,
2013-07-27 16:21:00,69.3,64.9,29.72,East,88,5.0,11.0,86,0.00,,,0.05,VWS V13.01,2013-07-27 20:21:00,
2013-07-27 16:27:00,69.2,64.8,29.71,East,87,8.0,11.0,86,0.00,,,0.05,VWS V13.01,2013-07-27 20:27:00,
2013-07-27 16:32:00,69.2,65.2,29.71,ESE,110,8.0,9.0,87,0.00,,,0.05,VWS V13.01,2013-07-27 20:32:00,
2013-07-27 16:37:00,69.1,64.7,29.71,East,98,6.0,9.0,86,0.00,,,0.05,VWS V13.01,2013-07-27 20:37:00,
2013-07-27 16:42:00,69.1,65.4,29.70,ESE,103,9.0,9.0,88,0.00,,,0.05,VWS V13.01,2013-07-27 20:42:00,
2013-07-27 16:47:00,69.1,65.4,29.71,ESE,111,8.0,10.0,88,0.00,,,0.05,VWS V13.01,2013-07-27 20:47:00,
2013-07-27 16:52:00,69.0,65.6,29.72,ESE,111,8.0,9.0,89,0.00,,,0.05,VWS V13.01,2013-07-27 20:52:00,
2013-07-27 16:57:00,68.8,65.4,29.73,ESE,111,8.0,10.0,89,0.00,,,0.05,VWS V13.01,2013-07-27 20:57:00,
2013-07-27 17:02:00,68.6,65.6,29.73,ESE,117,5.0,10.0,90,0.00,,,0.05,VWS V13.01,2013-07-27 21:02:00,
2013-07-27 17:07:00,68.6,65.9,29.72,ESE,107,9.0,11.0,91,0.00,,,0.05,VWS V13.01,2013-07-27 21:07:00,
2013-07-27 17:12:00,68.6,65.6,29.72,East,101,10.0,11.0,90,0.00,,,0.05,VWS V13.01,2013-07-27 21:12:00,
2013-07-27 17:17:00,68.6,65.6,29.72,ESE,107,10.0,10.0,90,0.00,,,0.05,VWS V13.01,2013-07-27 21:17:00,
2013-07-27 17:22:00,68.6,65.6,29.71,East,94,8.0,11.0,90,0.00,,,0.05,VWS V13.01,2013-07-27 21:22:00,
2013-07-27 17:27:00,68.6,65.2,29.72,ESE,113,7.0,10.0,89,0.00,,,0.05,VWS V13.01,2013-07-27 21:27:00,
2013-07-27 17:32:00,68.6,65.2,29.73,East,101,6.0,9.0,89,0.00,,,0.05,VWS V13.01,2013-07-27 21:32:00,
2013-07-27 17:37:00,68.5,65.1,29.73,ESE,106,7.0,7.0,89,0.00,,,0.05,VWS V13.01,2013-07-27 21:37:00,
2013-07-27 17:42:00,68.4,65.4,29.73,SW,228,7.0,8.0,90,0.01,,,0.06,VWS V13.01,2013-07-27 21:42:00,
2013-07-27 17:47:00,66.4,62.1,29.73,SSW,198,5.0,18.0,86,0.03,,,0.08,VWS V13.01,2013-07-27 21:47:00,
2013-07-27 17:52:00,65.2,60.9,29.72,South,188,2.0,7.0,86,0.04,,,0.10,VWS V13.01,2013-07-27 21:52:00,
2013-07-27 17:57:00,64.3,60.7,29.73,SW,225,0.0,6.0,88,0.07,,,0.12,VWS V13.01,2013-07-27 21:57:00,
2013-07-27 18:02:00,63.9,60.3,29.73,SW,225,0.0,1.0,88,0.07,,RA,0.12,VWS V13.01,2013-07-27 22:02:00,
2013-07-27 18:07:00,63.7,60.7,29.73,SW,225,0.0,1.0,90,0.07,,RA,0.12,VWS V13.01,2013-07-27 22:07:00,
2013-07-27 18:12:00,63.7,61.3,29.73,NW,317,0.0,5.0,92,0.07,,RA,0.12,VWS V13.01,2013-07-27 22:12:00,
2013-07-27 18:18:00,63.8,61.7,29.72,NNW,327,3.0,4.0,93,0.07,,RA,0.12,VWS V13.01,2013-07-27 22:18:00,
2013-07-27 18:23:00,63.8,61.7,29.72,NW,325,1.0,3.0,93,0.07,,RA,0.12,VWS V13.01,2013-07-27 22:23:00,
2013-07-27 18:28:00,64.0,62.2,29.72,NNW,336,2.0,3.0,94,0.07,,RA,0.12,VWS V13.01,2013-07-27 22:28:00,
2013-07-27 18:33:00,64.2,62.4,29.72,NNW,335,0.0,2.0,94,0.07,,RA,0.12,VWS V13.01,2013-07-27 22:33:00,
2013-07-27 18:38:00,64.3,62.2,29.73,North,9,0.0,4.0,93,0.07,,RA,0.12,VWS V13.01,2013-07-27 22:38:00,
2013-07-27 18:43:00,64.0,61.9,29.73,North,5,2.0,5.0,93,0.07,,RA,0.12,VWS V13.01,2013-07-27 22:43:00,
2013-07-27 18:48:00,63.6,61.2,29.73,North,5,1.0,3.0,92,0.07,,RA,0.12,VWS V13.01,2013-07-27 22:48:00,
2013-07-27 18:53:00,63.3,60.9,29.73,North,350,0.0,4.0,92,0.07,,RA,0.12,VWS V13.01,2013-07-27 22:53:00,
2013-07-27 18:58:00,63.1,61.0,29.73,NNW,344,2.0,2.0,93,0.07,,RA,0.12,VWS V13.01,2013-07-27 22:58:00,
2013-07-27 19:03:00,63.0,61.0,29.72,NNW,332,0.0,3.0,93,0.00,,OVC080,0.12,VWS V13.01,2013-07-27 23:03:00,
2013-07-27 19:08:00,63.0,61.0,29.72,NNW,332,0.0,2.0,93,0.00,,OVC080,0.12,VWS V13.01,2013-07-27 23:08:00,
2013-07-27 19:13:00,62.9,61.2,29.72,North,5,0.0,2.0,94,0.00,,OVC080,0.12,VWS V13.01,2013-07-27 23:13:00,
2013-07-27 19:18:00,62.8,60.8,29.71,North,360,0.0,2.0,93,0.00,,OVC080,0.12,VWS V13.01,2013-07-27 23:18:00,
2013-07-27 19:23:00,62.8,61.0,29.71,NNW,346,2.0,3.0,94,0.00,,OVC080,0.12,VWS V13.01,2013-07-27 23:23:00,
2013-07-27 19:28:00,62.6,60.5,29.72,NW,313,1.0,4.0,93,0.00,,OVC080,0.12,VWS V13.01,2013-07-27 23:28:00,
2013-07-27 19:33:00,62.3,60.2,29.72,NW,315,0.0,3.0,93,0.00,,OVC080,0.12,VWS V13.01,2013-07-27 23:33:00,
2013-07-27 19:38:00,62.3,60.2,29.72,NW,317,3.0,5.0,93,0.00,,OVC080,0.12,VWS V13.01,2013-07-27 23:38:00,
2013-07-27 19:43:00,62.2,59.8,29.72,NW,315,2.0,5.0,92,0.00,,OVC080,0.12,VWS V13.01,2013-07-27 23:43:00,
2013-07-27 19:48:00,62.5,60.5,29.72,NW,315,4.0,4.0,93,0.00,,OVC080,0.12,VWS V13.01,2013-07-27 23:48:00,
2013-07-27 19:53:00,62.9,61.2,29.71,North,360,0.0,6.0,94,0.00,,OVC080,0.12,VWS V13.01,2013-07-27 23:53:00,
2013-07-27 19:58:00,63.2,60.8,29.72,NW,317,1.0,5.0,92,0.00,,OVC080,0.12,VWS V13.01,2013-07-27 23:58:00,
2013-07-27 20:03:00,62.9,60.5,29.73,WNW,286,3.0,7.0,92,0.00,,,0.12,VWS V13.01,2013-07-28 00:03:00,
2013-07-27 20:08:00,62.6,60.2,29.73,WNW,283,5.0,8.0,92,0.00,,,0.12,VWS V13.01,2013-07-28 00:08:00,
2013-07-27 20:13:00,62.4,60.3,29.73,NW,313,1.0,7.0,93,0.00,,,0.12,VWS V13.01,2013-07-28 00:13:00,
2013-07-27 20:18:00,62.3,60.2,29.73,NW,319,2.0,6.0,93,0.00,,,0.12,VWS V13.01,2013-07-28 00:18:00,
2013-07-27 20:23:00,62.2,60.2,29.73,NNW,327,3.0,6.0,93,0.00,,,0.12,VWS V13.01,2013-07-28 00:23:00,
2013-07-27 20:28:00,62.0,60.0,29.73,NW,317,1.0,5.0,93,0.00,,,0.12,VWS V13.01,2013-07-28 00:28:00,
2013-07-27 20:33:00,62.0,60.3,29.73,NW,325,2.0,5.0,94,0.00,,,0.12,VWS V13.01,2013-07-28 00:33:00,
2013-07-27 20:38:00,61.9,60.2,29.73,West,279,2.0,7.0,94,0.00,,,0.12,VWS V13.01,2013-07-28 00:38:00,
2013-07-27 20:43:00,61.9,60.2,29.74,NW,310,3.0,7.0,94,0.00,,,0.12,VWS V13.01,2013-07-28 00:43:00,
2013-07-27 20:48:00,61.8,59.8,29.74,NNW,327,2.0,6.0,93,0.00,,,0.12,VWS V13.01,2013-07-28 00:48:00,
2013-07-27 20:53:00,61.8,59.8,29.74,WNW,295,1.0,5.0,93,0.00,,,0.12,VWS V13.01,2013-07-28 00:53:00,
2013-07-27 20:58:00,61.8,59.8,29.74,NW,315,1.0,5.0,93,0.00,,,0.12,VWS V13.01,2013-07-28 00:58:00,
2013-07-27 21:03:00,61.7,60.0,29.74,NW,317,2.0,4.0,94,0.00,, +RA,0.12,VWS V13.01,2013-07-28 01:03:00,
2013-07-27 21:08:00,61.7,60.0,29.73,NW,317,0.0,4.0,94,0.00,, +RA,0.12,VWS V13.01,2013-07-28 01:08:00,
2013-07-27 21:13:00,61.7,60.0,29.74,NW,321,1.0,4.0,94,0.00,, +RA,0.12,VWS V13.01,2013-07-28 01:13:00,
2013-07-27 21:18:00,61.6,59.9,29.74,North,355,1.0,3.0,94,0.00,, +RA,0.12,VWS V13.01,2013-07-28 01:18:00,
2013-07-27 21:23:00,61.5,59.8,29.75,NNE,28,1.0,6.0,94,0.00,, +RA,0.12,VWS V13.01,2013-07-28 01:23:00,
2013-07-27 21:28:00,61.4,60.0,29.75,NNW,345,1.0,3.0,95,0.00,, +RA,0.12,VWS V13.01,2013-07-28 01:28:00,
2013-07-27 21:33:00,61.3,59.9,29.75,NNW,345,0.0,2.0,95,0.00,, +RA,0.12,VWS V13.01,2013-07-28 01:33:00,
2013-07-27 21:38:00,61.3,59.9,29.75,NNW,345,0.0,1.0,95,0.00,, +RA,0.12,VWS V13.01,2013-07-28 01:38:00,
2013-07-27 21:44:00,61.3,59.9,29.75,NNW,345,0.0,2.0,95,0.00,, +RA,0.12,VWS V13.01,2013-07-28 01:44:00,
2013-07-27 21:49:00,61.2,59.8,29.75,NNW,345,0.0,1.0,95,0.00,, +RA,0.12,VWS V13.01,2013-07-28 01:49:00,
2013-07-27 21:54:00,61.3,59.9,29.75,NNW,344,0.0,3.0,95,0.00,, +RA,0.12,VWS V13.01,2013-07-28 01:54:00,
2013-07-27 21:59:00,61.2,59.8,29.75,NNW,344,1.0,2.0,95,0.00,, +RA,0.12,VWS V13.01,2013-07-28 01:59:00,
2013-07-27 22:04:00,61.1,59.7,29.75,NNW,341,0.0,4.0,95,0.00,,OVC080,0.12,VWS V13.01,2013-07-28 02:04:00,
2013-07-27 22:09:00,61.1,59.7,29.75,NNW,341,1.0,3.0,95,0.00,,OVC080,0.12,VWS V13.01,2013-07-28 02:09:00,
2013-07-27 22:14:00,61.0,59.6,29.75,North,355,2.0,3.0,95,0.00,,OVC080,0.12,VWS V13.01,2013-07-28 02:14:00,
2013-07-27 22:19:00,61.0,59.6,29.74,NNW,342,0.0,3.0,95,0.00,,OVC080,0.13,VWS V13.01,2013-07-28 02:19:00,
2013-07-27 22:24:00,60.9,59.5,29.74,North,355,0.0,2.0,95,0.01,,OVC080,0.13,VWS V13.01,2013-07-28 02:24:00,
2013-07-27 22:29:00,60.8,59.4,29.74,North,355,0.0,1.0,95,0.02,,OVC080,0.14,VWS V13.01,2013-07-28 02:29:00,
2013-07-27 22:34:00,60.7,59.3,29.74,North,355,0.0,0.0,95,0.02,,OVC080,0.14,VWS V13.01,2013-07-28 02:34:00,
2013-07-27 22:39:00,60.6,59.2,29.75,North,351,1.0,2.0,95,0.03,,OVC080,0.16,VWS V13.01,2013-07-28 02:39:00,
2013-07-27 22:44:00,61.3,60.4,29.76,WSW,238,4.0,9.0,97,0.07,,OVC080,0.22,VWS V13.01,2013-07-28 02:44:00,
2013-07-27 22:49:00,61.8,60.9,29.76,WSW,242,18.0,23.0,97,0.22,,OVC080,0.39,VWS V13.01,2013-07-28 02:49:00,
2013-07-27 22:54:00,59.5,57.5,29.76,NNW,328,8.0,18.0,93,0.42,,OVC080,0.58,VWS V13.01,2013-07-28 02:54:00,
2013-07-27 22:59:00,58.6,56.9,29.75,West,273,2.0,8.0,94,0.66,,OVC080,0.78,VWS V13.01,2013-07-28 02:59:00,
2013-07-27 23:04:00,58.4,57.0,29.75,NNW,340,1.0,5.0,95,0.79,,-RA,0.91,VWS V13.01,2013-07-28 03:04:00,
2013-07-27 23:09:00,58.4,57.3,29.75,NW,323,0.0,3.0,96,0.81,,-RA,0.93,VWS V13.01,2013-07-28 03:09:00,
2013-07-27 23:14:00,58.6,57.5,29.75,WSW,256,1.0,5.0,96,0.81,,-RA,0.93,VWS V13.01,2013-07-28 03:14:00,
2013-07-27 23:19:00,58.6,57.5,29.75,West,273,2.0,4.0,96,0.81,,-RA,0.93,VWS V13.01,2013-07-28 03:19:00,
2013-07-27 23:24:00,58.9,58.0,29.75,West,262,2.0,5.0,97,0.81,,-RA,0.93,VWS V13.01,2013-07-28 03:24:00,
2013-07-27 23:29:00,59.0,58.2,29.75,West,273,2.0,4.0,97,0.81,,-RA,0.93,VWS V13.01,2013-07-28 03:29:00,
2013-07-27 23:34:00,59.2,58.3,29.75,WSW,251,0.0,7.0,97,0.79,,-RA,0.93,VWS V13.01,2013-07-28 03:34:00,
2013-07-27 23:39:00,59.3,58.5,29.75,WSW,251,3.0,3.0,97,0.79,,-RA,0.93,VWS V13.01,2013-07-28 03:39:00,
2013-07-27 23:44:00,59.3,58.5,29.75,West,274,2.0,5.0,97,0.79,,-RA,0.93,VWS V13.01,2013-07-28 03:44:00,
2013-07-27 23:49:00,59.2,58.1,29.75,WNW,296,3.0,6.0,96,0.79,,-RA,0.93,VWS V13.01,2013-07-28 03:49:00,
2013-07-27 23:54:00,59.1,58.0,29.75,NW,312,3.0,7.0,96,0.80,,-RA,0.94,VWS V13.01,2013-07-28 03:54:00,
2013-07-27 23:59:00,58.8,57.7,29.75,WNW,284,8.0,9.0,96,0.80,,-RA,0.94,VWS V13.01,2013-07-28 03:59:00,